Capitol Logistics 1132


EDDF
Frankfurt Rhein-Main
Frankfurt, DE
EBLG
Liège Airport
Liege, BE

Route Details

Aircraft Information
Primary: Boeing 737-800BCF
Backup: Not Available
Route Data
Distance: 125nm
Sched. Duration: 1h 00m
Avg. Duration: 0h 49m (-50m)
Times Flown: 7
Recm'd Route: Not Available
Planned Altitude: 24,000ft
Origin Wx: EDDF 280150Z 18007KT 9000 SCT004 OVC009 02/02 Q1012 R25L/290095 R25C/290095 R18/290095 NOSIG=
Dest. Wx: EBLG 280150Z 18008KT 4700 BR -DZ SCT003 BKN004 04/03 Q1009 TEMPO 2000 -DZ BKN005
Notes:

Financial History
Total Freight: 253,442lbs
Average Load: 36,206lbs/flt
Fuel Used: 33,714lbs
Avg. Fuel Used: 4,816lbs/flt
Fuel Expense: $26,971
Avg. Fuel Expense: $3,853
Avg. Fuel Cost: $0.80/lbs
Total Gross Income: $536,558
Pilot Pay: $1,483
Total Expenses: $58,312
Total Revenue: $450,136
Average Revenue: $76,651.11